Dewpoint
58 48 47 39 32 27 25 26 25 45 45 48 48 47 47 46 46 44 51 49 49 50 51 53 62 68 69 68 68 67 68 68 69 68 68 68 68 68 69 69 69 69 69 70 70 70 70 70 70
53 50 46 35 28 24 23 26 29 46 48 47 46 46 47 46 45 48 51 48 49 49 50 53 64 68 68 68 68 68 67 67 67 67 67 68 69 68 68 68 68 69 69 69 69 69 69 69 70
52 53 40 31 27 22 27 41 46 47 47 48 46 44 45 44 44 45 46 48 49 48 49 54 67 68 68 68 68 67 67 66 66 66 67 67 68 68 68 68 67 67 69 69 69 69 69 69 70
54 53 41 24 27 23 29 47 47 47 47 47 46 43 42 41 43 45 46 47 46 46 48 61 67 67 67 68 67 66 66 66 66 67 66 67 68 69 69 69 69 69 69 68 69 69 70 69 69
52 48 37 23 26 23 46 48 48 46 45 45 45 44 42 42 43 45 46 46 44 45 47 53 67 67 67 67 66 66 67 67 67 67 67 67 67 68 69 68 69 69 69 69 68 69 69 69 69
45 43 33 23 19 25 43 45 45 44 45 44 45 44 43 41 43 45 46 45 43 44 45 46 58 65 65 65 66 67 67 67 67 66 66 65 65 66 68 68 68 67 67 68 68 68 68 68 68
40 38 32 29 17 24 42 42 41 42 43 40 41 43 41 40 42 45 45 44 42 42 43 44 46 52 60 62 63 64 65 65 65 65 66 66 67 66 67 67 67 66 66 66 67 67 67 67 67
46 44 37 35 29 30 40 39 38 38 37 36 35 43 42 41 43 44 44 43 41 40 41 41 43 45 46 51 58 59 60 61 62 63 63 62 62 63 64 65 66 66 65 65 65 66 66 66 65
48 40 35 36 34 33 41 40 37 37 37 35 35 36 38 42 43 43 43 42 40 40 39 40 41 43 44 45 48 51 54 55 55 56 59 58 58 58 58 62 62 64 63 64 63 62 61 60 61
43 39 36 40 39 38 39 39 38 39 37 36 36 37 41 42 42 42 41 40 38 37 38 39 39 40 43 43 44 44 45 44 44 47 50 54 55 56 56 57 59 59 59 60 61 61 60 58 56
39 36 41 40 42 43 39 37 35 40 39 38 38 38 39 40 40 40 39 38 36 36 37 38 38 38 39 41 41 42 42 42 41 41 44 49 52 52 52 52 52 54 55 54 54 54 54 55 56
33 35 37 39 42 43 40 36 34 32 32 35 37 38 38 39 39 39 38 36 36 35 36 37 37 36 36 36 36 36 38 38 38 38 40 45 48 49 49 49 50 51 53 52 52 53 52 53 54
30 35 36 37 37 36 36 33 35 30 32 35 36 36 36 36 36 37 36 37 36 36 35 37 36 35 34 33 32 32 32 32 33 35 36 40 44 45 46 47 47 48 50 52 52 51 51 51 51
32 35 35 36 35 35 35 32 32 30 31 33 34 34 33 34 34 34 36 35 34 35 35 36 36 33 31 30 29 29 29 30 31 31 32 36 40 42 44 45 45 45 47 50 52 50 50 50 50
35 33 34 35 35 34 34 34 34 29 30 31 31 31 31 31 32 33 35 35 35 35 35 35 35 32 29 28 28 26 26 26 27 28 30 32 36 38 40 42 42 43 45 47 49 48 48 49 49
32 32 29 33 35 35 34 30 29 28 29 30 31 30 30 30 31 31 32 33 34 34 34 35 35 32 28 26 25 23 22 22 23 24 27 31 33 36 38 39 39 41 42 44 45 46 46 48 48
30 26 27 32 35 33 33 29 29 28 29 30 30 30 29 29 29 30 32 32 33 33 34 34 35 33 28 25 24 22 20 20 20 21 23 27 32 34 35 36 37 39 41 42 43 43 44 45 47
26 25 27 28 33 33 32 32 27 28 28 29 29 28 28 29 29 29 30 32 33 33 33 33 34 35 29 27 24 23 21 19 19 20 20 23 29 31 33 34 35 37 38 38 41 41 41 42 44
29 28 27 29 34 32 32 31 29 27 28 29 28 27 27 28 28 27 29 31 32 32 32 30 32 32 34 31 28 25 22 19 18 19 20 22 24 29 31 32 33 34 34 34 36 40 40 39 40
29 28 27 28 34 32 30 31 31 27 28 29 29 27 27 27 26 26 27 29 31 31 32 30 29 29 33 31 26 24 20 19 18 19 18 20 22 25 26 29 29 30 31 31 32 36 39 38 37
29 27 26 25 32 32 28 27 29 28 27 28 29 29 28 28 26 25 24 26 28 28 29 31 30 28 28 28 24 21 21 20 18 17 17 17 19 22 24 25 27 27 28 28 29 31 36 37 36
29 30 27 28 29 24 29 23 25 28 26 27 28 28 28 27 27 25 24 25 25 26 26 27 28 28 28 27 23 23 22 17 15 15 15 15 15 18 21 23 24 25 26 24 25 26 29 34 32
30 31 29 30 28 24 25 25 24 26 26 27 27 28 28 28 26 24 23 22 21 22 25 25 25 25 25 23 23 21 16 15 15 13 11 12 13 14 16 20 21 22 24 23 21 22 22 24 24
30 30 29 27 26 23 24 26 21 24 25 27 29 28 28 27 25 23 21 18 17 18 19 20 21 22 24 21 19 17 14 13 11 10 10 11 12 13 14 16 18 20 21 21 20 19 18 19 19
31 29 26 23 22 19 22 24 22 25 26 27 26 28 28 27 23 21 17 14 14 13 13 15 18 18 18 16 15 15 13 11 10 11 9 9 10 11 11 14 15 16 17 18 18 16 15 14 14
28 30 25 17 17 17 24 22 22 26 26 27 25 28 27 25 21 20 14 12 12 12 11 11 12 13 15 15 12 11 11 11 10 9 9 9 9 11 10 12 14 14 15 16 15 15 15 13 13
29 29 31 27 22 19 22 22 22 19 20 23 26 27 26 22 20 14 11 11 11 11 10 10 9 9 10 10 9 10 8 7 7 6 7 6 6 6 9 11 12 14 15 14 14 13 13 12 12
28 31 29 30 21 20 21 18 18 19 21 22 25 24 21 19 13 11 10 9 9 10 10 9 9 9 9 9 9 9 8 8 7 6 6 5 5 6 7 9 11 13 14 14 14 14 13 12 12
29 28 32 33 30 22 20 17 21 21 21 22 24 21 16 11 9 8 7 6 7 7 7 8 9 9 9 11 11 11 11 11 11 10 10 9 8 6 6 7 9 12 14 15 15 15 15 14 13
35 33 33 27 24 27 22 18 16 16 21 24 21 15 10 8 6 4 5 4 5 7 7 8 9 11 13 13 13 13 11 11 10 10 10 10 9 10 9 8 9 12 13 13 14 15 16 16 16
Lifted_Index
8 9 9 8 7 6 6 6 6 5 4 4 3 3 4 4 4 4 4 4 3 2 2 2 1 -0 -1 -1 -0 -0 0 0 0 0 0 0 -0 -1 -1 -1 -1 -2 -2 -2 -3 -3 -3 -3 -3
8 8 9 8 7 6 6 6 6 5 4 4 3 3 3 4 4 4 4 3 3 2 2 2 1 -0 -1 -1 -0 -0 0 0 1 1 1 0 -0 -1 -1 -1 -1 -1 -2 -2 -3 -3 -3 -3 -3
7 7 8 8 7 7 6 5 5 4 4 3 3 2 3 3 3 3 3 2 2 2 2 1 0 -1 -1 -1 -0 -0 0 1 1 1 1 0 -0 -0 -1 -1 -0 -1 -1 -2 -2 -2 -3 -3 -3
6 6 7 7 7 7 5 4 3 3 3 2 2 2 2 3 4 3 3 2 1 1 1 1 0 -1 -1 -1 -0 -0 0 0 1 1 1 1 0 -0 -1 -1 -1 -1 -1 -1 -2 -2 -3 -3 -3
6 6 5 6 7 6 4 2 2 2 2 2 2 1 2 3 3 3 2 2 1 1 1 1 0 -0 -0 -0 -0 -0 -0 0 0 1 1 1 1 0 -1 -1 -1 -1 -1 -1 -1 -2 -3 -3 -2
6 5 4 5 6 5 2 1 1 1 1 1 1 1 2 2 3 3 2 2 2 2 2 2 1 1 1 1 1 0 0 0 0 1 1 1 1 1 -0 -1 -1 -1 -1 -1 -1 -1 -2 -2 -2
5 5 4 5 6 5 2 1 0 1 1 1 1 1 1 1 2 2 2 2 2 2 2 2 2 2 2 2 2 1 1 1 1 2 2 2 1 1 1 0 0 0 0 0 0 -0 -0 -1 -1
6 5 5 5 6 5 3 1 1 1 1 1 1 1 1 1 1 2 2 2 2 2 2 2 2 3 3 3 3 3 2 2 3 3 3 2 2 2 2 2 1 1 1 2 2 1 1 1 1
6 5 5 6 6 6 4 3 2 1 1 1 1 1 0 0 1 1 1 2 2 2 2 2 3 3 3 3 3 4 4 3 3 3 4 4 3 3 3 3 3 3 3 3 3 3 2 2 2
5 5 5 6 6 6 5 4 2 1 1 1 1 1 1 0 0 0 0 1 2 2 2 2 3 3 3 3 4 5 5 4 4 4 4 4 4 4 4 5 4 4 4 3 3 3 3 3 3
4 5 5 5 5 6 5 5 3 2 1 1 1 1 1 0 -0 -0 -0 1 2 2 2 3 3 4 4 4 5 5 5 5 4 4 4 4 4 5 5 5 5 5 4 4 3 3 3 4 4
4 4 4 4 5 5 5 4 4 2 2 1 1 1 1 0 -0 -0 -0 1 1 2 3 4 4 5 5 5 6 6 6 5 5 4 4 4 4 5 5 5 5 5 5 4 4 4 4 4 4
3 3 4 4 4 4 4 4 4 3 3 2 2 2 1 1 -0 -0 0 1 2 2 4 5 5 6 6 6 6 6 6 6 5 5 5 5 5 5 5 5 5 5 5 5 5 5 5 5 5
3 4 4 4 4 4 4 4 4 3 3 3 3 2 2 1 0 0 1 1 2 3 4 5 6 6 5 5 5 5 5 6 6 6 6 6 5 5 5 5 5 5 5 5 5 5 5 5 5
4 4 4 5 4 4 4 4 4 4 4 4 4 3 3 2 1 0 1 2 3 4 5 6 6 5 5 4 4 4 5 6 7 7 7 7 7 6 6 6 5 5 5 5 5 5 5 5 5
4 4 4 4 4 4 4 4 4 5 5 5 5 4 3 2 1 1 2 3 4 5 5 6 6 5 5 4 4 5 6 6 7 8 8 8 8 7 7 6 6 6 5 5 5 5 6 6 6
3 3 3 3 3 3 3 3 4 4 5 5 5 5 4 3 2 2 2 4 5 6 6 6 6 6 5 5 4 5 6 6 7 8 8 8 8 8 7 7 6 6 6 6 6 6 6 7 7
3 2 2 2 2 2 2 2 3 4 4 5 5 5 5 4 3 2 3 4 5 6 7 7 7 6 6 5 5 5 5 6 6 7 8 8 8 8 8 7 6 6 6 6 6 7 7 7 7
2 2 1 1 1 1 2 2 3 3 4 4 4 5 5 4 3 3 3 4 5 6 7 7 7 7 7 5 5 5 5 5 6 6 7 8 8 8 8 8 7 7 7 7 7 7 7 8 8
1 1 1 1 1 1 2 2 3 3 3 3 4 4 5 4 4 3 3 3 4 5 6 6 7 8 7 6 5 5 5 5 6 6 7 7 8 8 9 9 9 8 8 8 8 8 8 8 8
1 1 1 1 1 1 2 2 2 3 3 3 4 4 4 4 4 3 2 3 3 4 5 6 7 8 8 7 6 5 5 5 5 6 7 7 8 8 9 9 9 9 9 9 9 9 9 9 9
2 1 1 0 1 1 2 2 3 3 3 3 3 3 3 4 4 3 3 3 3 4 5 6 7 8 8 7 6 5 5 5 5 6 7 8 8 9 9 10 10 10 10 11 11 11 11 11 10
1 1 0 0 0 1 2 3 3 3 3 3 3 2 2 3 4 4 3 3 4 5 6 7 7 8 9 8 6 6 5 5 6 6 7 8 9 9 10 10 10 10 11 11 11 12 12 12 12
1 1 0 0 1 1 2 3 3 4 4 3 2 2 2 2 3 4 4 4 5 6 6 7 7 8 9 9 8 7 7 7 7 7 7 8 9 10 11 11 12 12 12 12 12 13 13 13 13
1 1 0 0 1 1 2 2 3 4 4 3 2 2 2 2 3 4 4 4 5 6 6 7 7 8 9 9 9 9 9 8 8 8 8 8 9 10 12 13 13 14 14 14 15 15 15 15 15
1 1 0 0 0 1 1 2 3 4 3 3 2 2 2 2 3 4 4 4 5 6 7 7 7 8 9 10 10 10 10 10 9 9 10 10 11 12 14 15 16 16 17 18 18 18 19 19 19
0 0 0 0 0 0 1 2 2 3 3 2 2 2 2 2 3 3 4 5 6 7 7 8 8 9 10 10 11 11 11 11 11 11 12 13 14 15 17 18 19 19 20 21 21 21 21 21 21
0 0 0 0 0 0 0 1 2 3 3 2 2 2 2 2 2 3 4 5 7 8 9 9 10 10 11 11 12 12 12 12 12 13 14 16 17 18 19 20 21 21 22 22 22 22 22 22 22
1 1 1 0 0 0 0 1 2 2 2 2 2 2 2 2 2 3 4 6 8 9 10 11 11 11 12 12 13 13 13 14 14 15 17 18 20 21 21 22 22 23 23 23 23 23 23 22 22
1 1 1 0 0 0 0 1 2 2 2 2 2 2 1 1 2 3 4 7 8 10 11 11 12 12 12 13 13 14 14 14 15 17 18 20 21 22 23 23 23 23 23 23 23 23 23 23 23